Fort Campbell, KY

2:07 PM CDT on July 22, 2017 (GMT -0500)
Campbell Army Air Field

Weather History for KHOP - October, 2014

Change the Weather History Date:

Monday, October 20, 2014

  Actual Average Record
Temperature  
Mean Temperature 57 °F -  
Max Temperature 68 °F 68 °F 84 °F (2005)
Min Temperature 46 °F 45 °F 33 °F (1996)
Degree Days  
Heating Degree Days 8    
Growing Degree Days 7 (Base 50)    
Moisture  
Dew Point 50 °F    
Average Humidity 89    
Maximum Humidity 100    
Minimum Humidity 55    
Precipitation  
Precipitation 0.00 in - - ()
Sea Level Pressure  
Sea Level Pressure 30.04 in    
Wind  
Wind Speed 4 mph (SSW)    
Max Wind Speed 14 mph    
Max Gust Speed -    
Visibility 7 miles    
Events Rain    
Averages and records for this station are not official NWS values.
T = Trace of Precipitation, MM = Missing Value Source: NWS Daily Summary

Daily Weather History Graph

Daily Weather History Graph

Search for Another Location

Airport or City:

Trip Planner

Search our weather history database for the weather conditions in past years. The results will help you decide how hot, cold, wet, or windy it might be!

Date:

Astronomy

Oct. 20, 2014 Rise Set
Actual Time 7:01 AM CDT 6:06 PM CDT
Civil Twilight 6:35 AM CDT 6:33 PM CDT
Nautical Twilight 6:05 AM CDT 7:03 PM CDT
Astronomical Twilight 5:35 AM CDT 7:33 PM CDT
Moon 3:54 AM CDT (10/20) 4:25 PM CDT (10/20)
Length of Visible Light 11h 57m
Length of Day
11h 05m
Waning Crescent, 10% of the Moon is Illuminated
Oct 20
Waning Crescent
Oct 23
New
Oct 30
First Quarter
Nov 6
Full
Nov 14
Last Quarter

Hourly Weather History & Observations

Time (CDT) Temp. Dew Point Humidity Pressure Visibility Wind Dir Wind Speed Gust Speed Precip Events Conditions
12:58 AM 47.8 °F 47.8 °F 100% 30.09 in 7.0 mi Calm Calm - N/A   Scattered Clouds
1:58 AM 47.7 °F 47.7 °F 100% 30.08 in 4.0 mi Calm Calm - N/A   Scattered Clouds
2:58 AM 46.9 °F 46.9 °F 100% 30.07 in 8.0 mi SW 1.2 mph - N/A   Scattered Clouds
3:58 AM 46.8 °F 46.6 °F 99% 30.06 in 7.0 mi SW 1.2 mph - N/A   Mostly Cloudy
4:58 AM 47.3 °F 46.9 °F 99% 30.08 in 6.0 mi SSW 3.5 mph - N/A   Mostly Cloudy
5:41 AM 48.2 °F 48.2 °F 100% 30.06 in 3.0 mi SSE 1.2 mph - N/A   Mostly Cloudy
5:58 AM 47.5 °F 47.5 °F 100% 30.07 in 2.5 mi SSE 1.2 mph - N/A   Overcast
6:06 AM 48.2 °F 48.2 °F 100% 30.06 in 3.0 mi SSE 2.3 mph - N/A   Overcast
6:11 AM 48.2 °F 48.2 °F 100% 30.06 in 3.0 mi South 2.3 mph - N/A   Mostly Cloudy
6:58 AM 48.2 °F 48.0 °F 99% 30.07 in 3.0 mi Variable 2.3 mph - N/A   Scattered Clouds
7:01 AM 48.2 °F 48.2 °F 100% 30.06 in 2.5 mi South 2.3 mph - N/A   Mostly Cloudy
7:18 AM 48.2 °F 48.2 °F 100% 30.06 in 3.0 mi South 3.5 mph - N/A   Mostly Cloudy
7:20 AM 48.2 °F 48.2 °F 100% 30.06 in 2.5 mi SSW 2.3 mph - N/A   Mostly Cloudy
7:22 AM 48.2 °F 48.2 °F 100% 30.06 in 3.0 mi South 3.5 mph - N/A   Mostly Cloudy
7:44 AM 48.2 °F 48.2 °F 100% 30.07 in 2.5 mi SSW 3.5 mph - N/A   Overcast
7:50 AM 48.2 °F 48.2 °F 100% 30.07 in 1.8 mi SW 3.5 mph - N/A   Mostly Cloudy
7:58 AM 48.7 °F 48.7 °F 100% 30.09 in 1.5 mi SSW 2.3 mph - N/A   Mostly Cloudy
8:10 AM 50.0 °F 50.0 °F 100% 30.08 in 3.0 mi South 2.3 mph - N/A   Scattered Clouds
8:58 AM 52.5 °F 50.9 °F 94% 30.09 in 5.0 mi SW 4.6 mph - N/A   Scattered Clouds
9:05 AM 53.6 °F 51.8 °F 94% 30.08 in 5.0 mi SSW 4.6 mph - N/A   Scattered Clouds
9:50 AM 55.4 °F 51.8 °F 88% 30.06 in 6.0 mi South 6.9 mph - N/A Rain Light Rain
9:58 AM 54.5 °F 51.8 °F 91% 30.08 in 9.0 mi SSW 4.6 mph - 0.00 in   Light Drizzle
10:01 AM 53.6 °F 51.8 °F 94% 30.07 in 10.0 mi South 4.6 mph - N/A   Mostly Cloudy
10:39 AM 57.2 °F 51.8 °F 82% 30.07 in 10.0 mi WSW 8.1 mph - N/A   Light Drizzle
10:58 AM 57.0 °F 52.5 °F 85% 30.07 in 9.0 mi WSW 8.1 mph - 0.00 in Rain Light Rain
11:16 AM 59.0 °F 53.6 °F 82% 30.06 in 10.0 mi SW 9.2 mph - N/A   Mostly Cloudy
11:58 AM 62.2 °F 52.3 °F 70% 30.04 in 10.0 mi SSW 11.5 mph - 0.00 in   Scattered Clouds
12:58 PM 67.1 °F 51.1 °F 56% 30.00 in 10.0 mi SSW 13.8 mph - N/A   Clear
1:58 PM 68.2 °F 51.3 °F 55% 29.98 in 10.0 mi WSW 13.8 mph - N/A   Partly Cloudy
2:58 PM 68.7 °F 52.0 °F 55% 29.97 in 10.0 mi WSW 13.8 mph - N/A   Clear
3:58 PM 68.7 °F 52.3 °F 56% 29.96 in 10.0 mi SW 12.7 mph - N/A   Clear
4:58 PM 67.6 °F 52.5 °F 58% 29.94 in 10.0 mi SW 12.7 mph - N/A   Clear
5:58 PM 64.6 °F 52.9 °F 66% 29.96 in 10.0 mi SSW 10.4 mph - N/A   Clear
6:58 PM 61.5 °F 53.1 °F 74% 29.98 in 10.0 mi SSW 5.8 mph - N/A   Clear
7:58 PM 59.4 °F 53.2 °F 80% 29.99 in 10.0 mi SW 4.6 mph - N/A   Clear
8:58 PM 57.7 °F 54.3 °F 88% 30.00 in 10.0 mi SSW 3.5 mph - N/A   Clear
9:58 PM 54.5 °F 54.0 °F 98% 30.01 in 10.0 mi SW 6.9 mph - N/A   Clear
10:58 PM 55.0 °F 54.9 °F 99% 30.00 in 10.0 mi WSW 8.1 mph - N/A   Mostly Cloudy
11:58 PM 56.5 °F 54.9 °F 94% 30.00 in 10.0 mi West 5.8 mph - N/A   Clear